Content
SEND FEEDBACK

Daily
Averages
Monthly
Summary
Philippines

BOOT, PHILIPPINES


Home > Asia > Philippines
Elevation: 36 feet     Latitude: 14 04N     Longitude: 121 03E

WEATHER
 
SELECT A DAY
Number of Records: 178,918;   Date Range: 7/1/96 - 12/19/14
 
SHARE

PRINT THIS DATA

[ ← Previous Day ]
WEATHER ALMANAC - JUNE 24, 2013
[ Next Day → ]
[ °C ]   °F
We're sorry. There is no daily almanac available for Boot, Philippines on June 24, 2013.
WEATHER BY HOUR - JUNE 24, 2013
[ °C ]   °F
Local TimeTemperatureDewpointHumidityBarometerVisibilityWind DirectionWind SpeedGust SpeedPrecipitationEventsConditions
1:00 AM80.6 °F78.8 °F94 %29.83 in5.6 miESE (120°)4.6 mphMostly Cloudy
2:00 AM80.0 °F79.0 °F97 %29.83 in6.0 miSouth (190°)4.5 mphHaze
2:00 AM80.6 °F78.8 °F94 %29.83 in5.6 miSSW (200°)3.5 mphMostly Cloudy
3:00 AM80.6 °F78.8 °F94 %29.83 in5.6 miVariable2.3 mphMostly Cloudy
4:00 AM78.8 °F77.0 °F94 %29.83 in5.6 miVariable2.3 mphMostly Cloudy
5:00 AM78.8 °F77.0 °F94 %29.83 in5.6 miCalmScattered Clouds
6:00 AM78.8 °F77.0 °F94 %29.86 in5.0 miVariable2.3 mphScattered Clouds
7:00 AM80.6 °F77.0 °F89 %29.86 in5.6 miVariable2.3 mphScattered Clouds
8:00 AM83.0 °F76.0 °F75 %29.90 in6.0 miSouth (180°)2.2 mphHaze
8:00 AM84.2 °F77.0 °F79 %29.89 in6.2 miVariable2.3 mphScattered Clouds
9:00 AM87.8 °F75.2 °F66 %29.89 in6.2 miEast (90°)4.6 mphMostly Cloudy
10:00 AM86.0 °F78.8 °F79 %29.89 in6.2 miVariable6.9 mphMostly Cloudy
11:00 AM86.0 °F78.0 °F71 %29.89 in6.0 miNW (310°)6.7 mphHaze
11:00 AM86.0 °F77.0 °F74 %29.86 in6.2 miNW (310°)6.9 mphOvercast
12:00 PM87.8 °F75.2 °F66 %29.86 in6.2 miNNW (330°)10.4 mphOvercast
1:00 PM89.6 °F73.4 °F59 %29.83 in6.2 miNNW (330°)10.4 mphOvercast
2:00 PM90.0 °F75.0 °F53 %29.84 in6.0 miWNW (300°)6.7 mphHaze
2:00 PM89.6 °F75.2 °F62 %29.80 in6.2 miWNW (300°)8.1 mphOvercast
3:00 PM89.6 °F75.2 °F62 %29.80 in5.6 miWest (280°)8.1 mphOvercast
4:00 PM89.6 °F75.2 °F62 %29.77 in6.2 miWNW (300°)6.9 mphOvercast
5:00 PM91.0 °F76.0 °F52 %29.79 in6.0 miWest (280°)2.2 mphHaze
5:00 PM91.4 °F75.2 °F59 %29.77 in6.2 miWest (280°)2.3 mphMostly Cloudy
6:00 PM89.6 °F75.2 °F62 %29.80 in6.2 miSE (140°)4.6 mphMostly Cloudy
7:00 PM87.8 °F77.0 °F70 %29.83 in6.2 miSE (130°)3.5 mphMostly Cloudy
8:00 PM87.0 °F77.0 °F65 %29.85 in6.0 miSE (130°)4.5 mphHaze
8:00 PM87.8 °F77.0 °F70 %29.83 in6.2 miSE (130°)5.8 mphMostly Cloudy
9:00 PM86.0 °F77.0 °F74 %29.83 in6.2 miESE (120°)6.9 mphMostly Cloudy
10:00 PM86.0 °F77.0 °F74 %29.86 in6.2 miESE (120°)5.8 mphMostly Cloudy
11:00 PM85.0 °F75.0 °F64 %29.89 in6.0 miESE (110°)6.7 mphHaze
11:00 PM86.0 °F75.2 °F70 %29.86 in6.2 miESE (110°)5.8 mphMostly Cloudy
Hourly data recorded from RPLL, located miles away from Boot, Philippines







STORIES FROM OUR PARTNERS